When you browse on this site, cookies collect data to enhance your experience and personalize the content and advertising you see.
Visit our Privacy Policy to learn more. By continuing to use the site, you agree to this use of cookies and data.
  • In Romania
  • List of Countries
  • For 7 days
  • Water Temperature
  • Satellite Maps
  • Weather Map
  • Weather Widgets
  • user-avatar
    Login

    Hourly Weather Buenos Aires

    Today, 27 June, Thursday

    Time Temperature Precipitation Wind Pressure Humidity
    00:00 +9°C° 0 mm 7 mps 759 mmHg 58%
    01:00 +9°C° 0 mm 7 mps 759 mmHg 59%
    02:00 +8°C° 0 mm 7 mps 759 mmHg 59%
    03:00 +8°C° 0 mm 7 mps 759 mmHg 59%
    04:00 +8°C° 0 mm 7 mps 758 mmHg 59%
    05:00 +6°C° 0 mm 7 mps 758 mmHg 59%
    06:00 +6°C° 0 mm 7 mps 758 mmHg 59%
    07:00 +6°C° 0 mm 7 mps 759 mmHg 59%
    08:00 +6°C° 0 mm 7 mps 759 mmHg 59%
    09:00 +8°C° 0 mm 6 mps 759 mmHg 54%
    10:00 +9°C° 0 mm 6 mps 759 mmHg 49%
    11:00 +11°C° 0 mm 6 mps 759 mmHg 43%
    12:00 +11°C° 0 mm 6 mps 759 mmHg 42%
    13:00 +13°C° 0 mm 5 mps 758 mmHg 41%
    14:00 +14°C° 0 mm 5 mps 758 mmHg 40%
    15:00 +13°C° 0 mm 5 mps 757 mmHg 45%
    16:00 +12°C° 0 mm 5 mps 757 mmHg 50%
    17:00 +12°C° 0 mm 5 mps 757 mmHg 55%
    18:00 +12°C° 0 mm 5 mps 757 mmHg 58%
    19:00 +12°C° 0 mm 5 mps 757 mmHg 62%
    20:00 +10°C° 0 mm 6 mps 757 mmHg 65%
    21:00 +10°C° 0 mm 6 mps 757 mmHg 66%
    22:00 +10°C° 0 mm 5 mps 757 mmHg 66%
    23:00 +10°C° 0 mm 5 mps 757 mmHg 66%

    Tomorrow, 28 June, Friday

    Time Temperature Precipitation Wind Pressure Humidity
    00:00 +10°C° 0 mm 5 mps 757 mmHg 69%
    01:00 +10°C° 0 mm 5 mps 757 mmHg 72%
    02:00 +11°C° 0 mm 4 mps 757 mmHg 75%
    03:00 +11°C° 0 mm 4 mps 756 mmHg 77%
    04:00 +11°C° 0 mm 3 mps 756 mmHg 78%
    05:00 +13°C° 0 mm 2 mps 756 mmHg 79%
    06:00 +13°C° 0.1 mm 2 mps 756 mmHg 81%
    07:00 +13°C° 0.1 mm 2 mps 756 mmHg 83%
    08:00 +13°C° 0.1 mm 2 mps 756 mmHg 85%
    09:00 +13°C° 0.7 mm 2 mps 756 mmHg 86%
    10:00 +13°C° 0.7 mm 1 mps 756 mmHg 88%
    11:00 +13°C° 0.7 mm 1 mps 756 mmHg 90%
    12:00 +14°C° 0.4 mm 1 mps 755 mmHg 90%
    13:00 +14°C° 0.4 mm 2 mps 755 mmHg 91%
    14:00 +14°C° 0.4 mm 2 mps 754 mmHg 91%
    15:00 +13°C° 0.3 mm 3 mps 754 mmHg 91%
    16:00 +13°C° 0.3 mm 3 mps 754 mmHg 92%
    17:00 +13°C° 0.3 mm 4 mps 754 mmHg 92%
    18:00 +13°C° 0 mm 4 mps 754 mmHg 92%
    19:00 +13°C° 0 mm 4 mps 755 mmHg 92%
    20:00 +13°C° 0 mm 4 mps 755 mmHg 91%
    21:00 +12°C° 0 mm 4 mps 755 mmHg 91%
    22:00 +12°C° 0 mm 4 mps 755 mmHg 91%
    23:00 +12°C° 0 mm 4 mps 755 mmHg 91%

    Day after tomorrow, 29 June, Saturday

    Time Temperature Precipitation Wind Pressure Humidity
    00:00 +12°C° 0 mm 4 mps 755 mmHg 91%
    01:00 +12°C° 0 mm 4 mps 755 mmHg 91%
    02:00 +12°C° 0 mm 4 mps 755 mmHg 90%
    03:00 +12°C° 0 mm 4 mps 755 mmHg 90%
    04:00 +12°C° 0 mm 4 mps 755 mmHg 90%
    05:00 +11°C° 0 mm 4 mps 755 mmHg 89%
    06:00 +11°C° 0.1 mm 4 mps 755 mmHg 89%
    07:00 +11°C° 0.1 mm 4 mps 756 mmHg 89%
    08:00 +11°C° 0.1 mm 4 mps 756 mmHg 89%
    09:00 +11°C° 0.1 mm 4 mps 756 mmHg 88%
    10:00 +12°C° 0.1 mm 4 mps 756 mmHg 87%
    11:00 +12°C° 0.1 mm 4 mps 757 mmHg 86%
    12:00 +12°C° 0 mm 4 mps 756 mmHg 85%
    13:00 +12°C° 0 mm 4 mps 756 mmHg 83%
    14:00 +12°C° 0 mm 3 mps 756 mmHg 82%
    15:00 +12°C° 0 mm 3 mps 756 mmHg 83%
    16:00 +12°C° 0 mm 3 mps 756 mmHg 84%
    17:00 +12°C° 0 mm 4 mps 756 mmHg 85%
    18:00 +12°C° 0 mm 3 mps 757 mmHg 85%
    19:00 +12°C° 0 mm 3 mps 757 mmHg 86%
    20:00 +12°C° 0 mm 3 mps 758 mmHg 86%
    21:00 +11°C° 0 mm 3 mps 758 mmHg 87%
    22:00 +11°C° 0 mm 3 mps 758 mmHg 87%
    23:00 +11°C° 0 mm 4 mps 759 mmHg 87%

    30 June, Sunday

    Time Temperature Precipitation Wind Pressure Humidity
    00:00 +11°C° 0 mm 4 mps 759 mmHg 86%
    01:00 +11°C° 0 mm 4 mps 759 mmHg 86%
    02:00 +11°C° 0 mm 4 mps 759 mmHg 85%
    03:00 +10°C° 0 mm 5 mps 759 mmHg 84%
    04:00 +9°C° 0 mm 5 mps 760 mmHg 84%
    05:00 +9°C° 0 mm 5 mps 760 mmHg 83%
    06:00 +9°C° 0 mm 5 mps 761 mmHg 82%
    07:00 +9°C° 0 mm 5 mps 761 mmHg 81%
    08:00 +9°C° 0 mm 6 mps 762 mmHg 80%
    09:00 +10°C° 0 mm 5 mps 762 mmHg 76%
    10:00 +10°C° 0 mm 5 mps 763 mmHg 72%
    11:00 +12°C° 0 mm 5 mps 763 mmHg 68%
    12:00 +13°C° 0 mm 4 mps 763 mmHg 65%
    13:00 +13°C° 0 mm 4 mps 763 mmHg 63%
    14:00 +14°C° 0 mm 4 mps 763 mmHg 60%
    15:00 +13°C° 0 mm 4 mps 763 mmHg 62%
    16:00 +12°C° 0 mm 4 mps 764 mmHg 63%
    17:00 +12°C° 0 mm 5 mps 764 mmHg 64%
    18:00 +12°C° 0 mm 4 mps 764 mmHg 64%
    19:00 +11°C° 0 mm 4 mps 765 mmHg 65%
    20:00 +11°C° 0 mm 4 mps 765 mmHg 66%
    21:00 +10°C° 0 mm 3 mps 765 mmHg 69%
    22:00 +10°C° 0 mm 3 mps 766 mmHg 72%
    23:00 +9°C° 0 mm 3 mps 766 mmHg 75%

    1 July, Monday

    Time Temperature Precipitation Wind Pressure Humidity
    00:00 +9°C° 0 mm 3 mps 766 mmHg 76%
    01:00 +9°C° 0 mm 3 mps 766 mmHg 77%
    02:00 +8°C° 0 mm 3 mps 765 mmHg 77%
    03:00 +8°C° 0 mm 3 mps 765 mmHg 78%
    04:00 +8°C° 0 mm 3 mps 765 mmHg 79%
    05:00 +7°C° 0 mm 3 mps 765 mmHg 80%
    06:00 +6°C° 0 mm 4 mps 766 mmHg 80%
    07:00 +6°C° 0 mm 4 mps 766 mmHg 81%
    08:00 +6°C° 0 mm 4 mps 766 mmHg 81%
    09:00 +7°C° 0 mm 4 mps 766 mmHg 73%
    10:00 +9°C° 0 mm 3 mps 766 mmHg 65%
    11:00 +10°C° 0 mm 3 mps 766 mmHg 57%
    12:00 +10°C° 0 mm 3 mps 765 mmHg 53%
    13:00 +12°C° 0 mm 2 mps 764 mmHg 49%
    14:00 +13°C° 0 mm 2 mps 763 mmHg 45%
    15:00 +12°C° 0 mm 2 mps 763 mmHg 47%
    16:00 +12°C° 0 mm 2 mps 762 mmHg 49%
    17:00 +10°C° 0 mm 2 mps 762 mmHg 51%
    18:00 +10°C° 0 mm 2 mps 762 mmHg 53%
    19:00 +9°C° 0 mm 3 mps 761 mmHg 55%
    20:00 +9°C° 0 mm 3 mps 761 mmHg 57%
    21:00 +8°C° 0 mm 4 mps 761 mmHg 59%
    22:00 +8°C° 0 mm 5 mps 761 mmHg 61%
    23:00 +8°C° 0 mm 5 mps 760 mmHg 62%

    2 July, Tuesday

    Time Temperature Precipitation Wind Pressure Humidity
    00:00 +8°C° 0 mm 6 mps 760 mmHg 63%
    01:00 +8°C° 0 mm 6 mps 759 mmHg 63%
    02:00 +8°C° 0 mm 7 mps 759 mmHg 63%
    03:00 +8°C° 0 mm 7 mps 758 mmHg 64%
    04:00 +7°C° 0 mm 8 mps 758 mmHg 65%
    05:00 +7°C° 0 mm 8 mps 757 mmHg 66%
    06:00 +7°C° 0 mm 8 mps 757 mmHg 66%
    07:00 +7°C° 0 mm 8 mps 757 mmHg 66%
    08:00 +8°C° 0 mm 7 mps 758 mmHg 67%
    09:00 +9°C° 0 mm 7 mps 757 mmHg 62%
    10:00 +10°C° 0 mm 7 mps 757 mmHg 57%
    11:00 +11°C° 0 mm 6 mps 757 mmHg 52%
    12:00 +11°C° 0 mm 6 mps 757 mmHg 50%
    13:00 +13°C° 0 mm 6 mps 756 mmHg 47%
    14:00 +13°C° 0 mm 6 mps 756 mmHg 45%
    15:00 +13°C° 0 mm 6 mps 756 mmHg 46%
    16:00 +12°C° 0 mm 5 mps 756 mmHg 47%
    17:00 +12°C° 0 mm 5 mps 756 mmHg 49%
    18:00 +11°C° 0 mm 4 mps 756 mmHg 49%
    19:00 +10°C° 0 mm 4 mps 756 mmHg 50%
    20:00 +10°C° 0 mm 4 mps 756 mmHg 50%
    21:00 +8°C° 0 mm 4 mps 756 mmHg 52%
    22:00 +8°C° 0 mm 4 mps 756 mmHg 53%
    23:00 +8°C° 0 mm 4 mps 756 mmHg 54%
    Show more